GW5798 Weather Reports


Display with metric or nautical units.
time (UTC)temp
F
wind
direction
speed
MPH
gust
MPH
rain 1hr
in
rain 24hr
in
rain mn
in
humidity
%
barometer
mb
20260506231105 86 0.0 1.0 0.00 0.00 0.00 75 1008.6
20260506230115 86 0.0 1.0 0.00 0.00 0.00 73 1008.6
20260506225045 87 0.0 0.0 0.00 0.00 0.00 72 1008.6
20260506224034 87 0.0 1.0 0.00 0.00 0.00 72 1008.6
20260506223045 87 41 0.0 3.0 0.00 0.00 0.00 71 1008.6
20260506222115 87 315 0.0 2.0 0.00 0.00 0.00 71 1008.5
20260506221106 88 185 0.0 2.0 0.00 0.00 0.00 70 1008.5
20260506220215 88 50 0.0 2.0 0.00 0.00 0.00 69 1008.4
20260506215045 88 205 1.0 3.0 0.00 0.00 0.00 72 1008.4
20260506214035 87 150 0.0 3.0 0.00 0.00 0.00 72 1008.5
20260506213025 87 114 1.0 4.0 0.00 0.00 0.00 72 1008.5
20260506212136 87 109 2.0 6.0 0.00 0.00 0.00 73 1008.6
20260506211106 87 132 3.0 6.0 0.00 0.00 0.00 72 1008.5
20260506210116 86 105 0.0 2.0 0.00 0.00 0.00 73 1008.6
20260506205046 86 148 0.0 1.0 0.00 0.00 0.00 74 1008.8
20260506204056 86 143 0.0 2.0 0.00 0.00 0.00 75 1008.9
20260506203026 85 125 1.0 3.0 0.00 0.00 0.00 75 1009.1
20260506202016 86 229 1.0 6.0 0.00 0.00 0.00 74 1009.1
20260506201107 87 147 1.0 4.0 0.00 0.00 0.00 72 1009.1
20260506200057 88 153 1.0 4.0 0.00 0.00 0.00 71 1009.0
20260506195047 86 170 1.0 4.0 0.00 0.00 0.00 73 1009.1
20260506194037 85 221 1.0 4.0 0.00 0.00 0.00 75 1009.4
20260506193027 85 202 1.0 6.0 0.00 0.00 0.00 75 1009.3
20260506192037 85 249 0.0 2.0 0.00 0.00 0.00 76 1009.5
20260506191128 84 185 1.0 2.0 0.00 0.00 0.00 78 1009.6
20260506190057 83 287 0.0 3.0 0.00 0.00 0.00 80 1009.7
20260506185048 84 191 2.0 6.0 0.00 0.00 0.00 76 1009.7
20260506184058 85 125 0.0 2.0 0.00 0.00 0.00 77 1009.9
20260506183027 84 140 1.0 3.0 0.00 0.00 0.00 77 1010.1
20260506182017 83 161 1.0 2.0 0.00 0.00 0.00 79 1010.2
20260506181109 83 227 0.0 2.0 0.00 0.00 0.00 81 1010.4
20260506180058 83 165 1.0 4.0 0.00 0.00 0.00 80 1010.6
20260506175048 82 158 0.0 2.0 0.00 0.00 0.00 81 1010.9
20260506174038 82 168 0.0 2.0 0.00 0.00 0.00 81 1010.9
20260506173028 83 0.0 1.0 0.00 0.00 0.00 81 1011.2
20260506172018 82 160 1.0 4.0 0.00 0.00 0.00 82 1011.3
20260506171109 81 92 1.0 3.0 0.00 0.00 0.00 82 1011.3
20260506170119 81 195 1.0 3.0 0.00 0.00 0.00 84 1011.3
20260506165049 80 144 0.0 3.0 0.00 0.00 0.00 85 1011.3
20260506164139 80 271 1.0 7.0 0.00 0.00 0.00 85 1011.1
20260506163049 80 288 1.0 4.0 0.00 0.00 0.00 83 1011.2
20260506162019 81 257 0.0 2.0 0.00 0.00 0.00 82 1010.9
20260506161110 81 189 1.0 3.0 0.00 0.00 0.00 83 1010.8
20260506160100 80 161 0.0 2.0 0.00 0.00 0.00 83 1010.8
20260506155110 80 185 1.0 4.0 0.00 0.00 0.00 83 1010.7
20260506154100 80 184 1.0 7.0 0.00 0.00 0.00 84 1010.8
20260506153030 80 0.0 2.0 0.00 0.00 0.00 85 1010.7
20260506152020 80 70 1.0 3.0 0.00 0.00 0.00 85 1010.5
20260506151111 80 116 1.0 3.0 0.00 0.00 0.00 86 1010.3
20260506150101 80 187 0.0 4.0 0.00 0.00 0.00 86 1010.3
20260506145111 80 175 1.0 3.0 0.00 0.00 0.00 86 1010.3
20260506144041 80 91 0.0 2.0 0.00 0.00 0.00 87 1010.0
20260506143031 79 24 1.0 2.0 0.00 0.00 0.00 88 1009.7
20260506142021 79 149 1.0 3.0 0.00 0.00 0.00 89 1009.7
20260506141111 79 175 0.0 3.0 0.00 0.00 0.00 89 1009.9
20260506135051 78 183 0.0 2.0 0.00 0.00 0.00 91 1009.9
20260506134101 77 190 0.0 2.0 0.00 0.00 0.00 92 1010.1
20260506133031 77 144 1.0 3.0 0.00 0.00 0.00 93 1009.9
20260506132021 76 210 0.0 2.0 0.00 0.00 0.00 93 1010.2
20260506131112 76 172 0.0 1.0 0.00 0.00 0.00 94 1010.2
20260506125052 76 232 1.0 3.0 0.00 0.00 0.00 94 1010.3
20260506124042 76 211 0.0 2.0 0.00 0.00 0.00 95 1010.0
20260506123032 75 80 1.0 3.0 0.00 0.00 0.00 95 1009.9
20260506122022 75 0.0 1.0 0.00 0.00 0.00 95 1009.9
20260506121113 75 161 1.0 3.0 0.00 0.00 0.00 95 1009.7
20260506115053 75 180 0.0 3.0 0.00 0.00 0.00 95 1009.6
20260506114103 75 0.0 1.0 0.00 0.00 0.00 95 1009.4
20260506113033 75 0.0 1.0 0.00 0.00 0.00 95 1009.3
20260506112023 75 228 0.0 3.0 0.00 0.00 0.00 95 1009.1
20260506111114 75 161 1.0 2.0 0.00 0.00 0.00 95 1009.0
20260506110104 75 200 1.0 3.0 0.00 0.00 0.00 95 1009.0
20260506105114 74 115 1.0 3.0 0.00 0.00 0.00 94 1008.9
20260506104043 75 88 0.0 2.0 0.00 0.00 0.00 94 1008.8
20260506103033 75 115 0.0 2.0 0.00 0.00 0.00 94 1008.9
20260506102024 75 137 1.0 4.0 0.00 0.00 0.00 93 1008.8
20260506101115 75 252 1.0 4.0 0.00 0.00 0.00 93 1008.8
20260506100125 75 149 1.0 2.0 0.00 0.00 0.00 93 1008.7
20260506095054 75 171 1.0 6.0 0.00 0.00 0.00 93 1008.8
20260506094044 75 170 1.0 6.0 0.00 0.00 0.00 92 1008.6
20260506093034 75 160 2.0 7.0 0.00 0.00 0.00 92 1008.4
20260506092024 76 99 1.0 8.0 0.00 0.00 0.00 92 1008.6
20260506091115 76 209 1.0 6.0 0.00 0.00 0.00 91 1008.5
20260506090105 76 142 1.0 6.0 0.00 0.00 0.00 91 1008.6
20260506085055 76 127 1.0 4.0 0.00 0.00 0.00 91 1008.7
20260506084105 76 163 1.0 7.0 0.00 0.00 0.00 91 1008.7
20260506083055 76 127 1.0 4.0 0.00 0.00 0.00 91 1008.9
20260506082025 76 180 2.0 4.0 0.00 0.00 0.00 91 1008.9
20260506081116 76 161 1.0 3.0 0.00 0.00 0.00 91 1008.9
20260506080106 76 252 1.0 3.0 0.00 0.00 0.00 92 1009.0
20260506073036 76 125 1.0 2.0 0.00 0.00 0.00 92 1009.3
20260506072026 76 198 1.0 4.0 0.00 0.00 0.00 92 1009.5
20260506071016 76 157 1.0 4.0 0.00 0.00 0.00 92 1009.4
20260506070147 76 111 1.0 4.0 0.00 0.00 0.00 92 1009.5
20260506062107 76 121 1.0 4.0 0.00 0.00 0.00 92 1009.6
20260506061017 76 186 1.0 3.0 0.00 0.00 0.00 92 1009.8
20260506060107 76 257 1.0 2.0 0.00 0.00 0.00 92 1009.8
20260506051017 76 120 1.0 6.0 0.00 0.00 0.00 91 1009.8
20260506050108 76 185 1.0 3.0 0.00 0.00 0.00 91 1009.6
20260506045058 77 169 1.0 4.0 0.00 0.00 0.00 90 1009.7
20260506044048 77 184 1.0 3.0 0.00 0.00 0.00 89 1009.8
20260506043038 77 125 1.0 4.0 0.00 0.00 0.00 89 1009.7
20260506042028 77 147 1.0 3.0 0.00 0.00 0.00 88 1009.6
20260506041018 77 193 2.0 7.0 0.00 0.00 0.00 87 1009.4
20260506040209 78 230 2.0 6.0 0.00 0.00 0.00 86 1009.6
20260506035059 78 135 1.0 2.0 0.00 0.00 0.00 86 1009.4
20260506034049 78 213 1.0 6.0 0.00 0.00 0.00 86 1009.4
20260506033039 78 151 2.0 7.0 0.00 0.00 0.00 86 1009.1
20260506032049 78 162 1.0 4.0 0.00 0.00 0.00 86 1009.0
20260506031019 78 158 1.0 8.0 0.00 0.00 0.00 86 1008.8
20260506030130 78 197 1.0 4.0 0.00 0.00 0.00 85 1008.7
20260506025100 78 156 2.0 6.0 0.00 0.00 0.00 85 1008.8
20260506024109 78 136 2.0 6.0 0.00 0.00 0.00 85 1008.6
20260506023039 78 176 2.0 4.0 0.00 0.00 0.00 84 1008.5
20260506022029 79 166 2.0 7.0 0.00 0.00 0.00 84 1008.4
20260506021019 79 138 2.0 6.0 0.00 0.00 0.00 83 1008.3
20260506020110 79 144 2.0 6.0 0.00 0.00 0.00 82 1008.2
20260506015100 79 130 2.0 4.0 0.00 0.00 0.00 82 1008.0
20260506014050 79 169 2.0 7.0 0.00 0.00 0.00 81 1007.8
20260506013040 79 116 1.0 7.0 0.00 0.00 0.00 80 1007.8
20260506012050 79 194 1.0 4.0 0.00 0.00 0.00 79 1007.5
20260506011020 80 186 2.0 8.0 0.00 0.00 0.00 79 1007.3
20260506010111 80 172 2.0 6.0 0.00 0.00 0.00 79 1007.3
20260506005101 80 162 2.0 9.0 0.00 0.00 0.00 78 1007.2
20260506004051 80 176 2.0 6.0 0.00 0.00 0.00 78 1007.2
20260506003041 80 104 1.0 6.0 0.00 0.00 0.00 78 1007.1
20260506002051 81 164 2.0 7.0 0.00 0.00 0.00 77 1006.9
20260506001041 81 131 2.0 8.0 0.00 0.00 0.00 77 1007.1
20260506000112 81 145 1.0 4.0 0.00 0.00 0.00 78 1007.2
20260505235102 81 238 1.0 8.0 0.00 0.00 0.00 77 1007.0
20260505234052 81 178 4.0 8.0 0.00 0.00 0.00 76 1007.0
20260505233041 82 179 2.0 9.0 0.00 0.00 0.00 76 1007.0
20260505232032 82 138 1.0 8.0 0.00 0.00 0.00 76 1007.0